Regional Weather Roundup
Issued by NWS Green Bay, WI

Home | Current Version | Previous Version | Text Only | Print | Product List | Glossary On
Versions: 1 2 3 4 5 6 7 8 9 10 11 12 13 14 15 16 17 18 19 20 21 22 23 24 25 26 27 28 29 30 31 32 33 34 35 36 37 38 39 40 41 42 43 44 45 46 47 48 49 50
000
ASUS43 KGRB 070211
RWRGRB

NORTH-CENTRAL AND NORTHEAST WISCONSIN REGIONAL WEATHER ROUNDUP
NATIONAL WEATHER SERVICE GREEN BAY WI
800 PM CST SAT FEB 06 2016

WIZ005-009-010>012-018-019-070300-
NORTH CENTRAL WISCONSIN

CITY           SKY/WX    TMP DP  RH WIND       PRES   REMARKS
IRONWOOD       CLOUDY    34  23  64 S16       29.77F
MANITOWISH WTR CLOUDY    30  22  72 S8        29.81F
ARBOR VITAE    CLOUDY    32  24  72 S13G18    29.84F
EAGLE RIVER    CLOUDY    30  20  68 SW9       29.84F
LAND O LAKES   CLOUDY    30  22  71 S7        29.84F
RHINELANDER    CLOUDY    30  21  69 SW12G17   29.87F
PHILLIPS       CLOUDY    30  22  72 S12G18    29.83F
ANTIGO         CLOUDY    28  24  85 S12       29.91F
TOMAHAWK       CLOUDY    30  22  74 S6        29.88F
MERRILL        MOCLDY    31  23  73 S7        29.91F
$$

WIZ013-073-070300-
NORTHEAST WISCONSIN

CITY           SKY/WX    TMP DP  RH WIND       PRES   REMARKS
IRON MOUNTAIN  CLOUDY    29  21  72 S9        29.90F
MARINETTE      CLOUDY    28  23  80 S9        29.98F
OCONTO         CLOUDY    29  26  87 S5        29.99F
$$

WIZ017-030-035>037-045-070300-
CENTRAL WISCONSIN

CITY           SKY/WX    TMP DP  RH WIND       PRES   REMARKS
MEDFORD        CLOUDY    29  24  79 S12       29.88F
WAUSAU         CLOUDY    32  23  69 S10       29.90F
MOSINEE        PTCLDY    28  25  86 S12       29.94F
MARSHFIELD     CLOUDY    31  21  66 S12       29.91F
WISC RAPIDS    CLOUDY    30  23  75 S10       29.97F
STEVENS POINT  CLOUDY    28  22  81 S10       29.96F
WAUPACA        CLOUDY    32  25  76 S8        29.99F
SHAWANO        CLOUDY    32  26  78 S3        29.97F
CLINTONVILLE   CLOUDY    32  25  74 S10       29.98F
WAUTOMA        CLOUDY    30  26  85 S9        30.00F
$$

WIZ038-039-048-051-070300-
FOX VALLEY

CITY           SKY/WX    TMP DP  RH WIND       PRES   REMARKS
NWS GREEN BAY  CLOUDY    30  24  78 S12       30.00F
APPLETON       MOCLDY    28  23  80 S12       29.99F
OSHKOSH        PTCLDY    29  23  78 S14       30.01F
FOND DU LAC    MOCLDY    29  24  82 SW10      30.03F
$$

WIZ022-050-052-070300-
EAST CENTRAL WISCONSIN

CITY           SKY/WX    TMP DP  RH WIND       PRES   REMARKS
EPHRAIM        CLOUDY    28  24  86 S8        29.98F
STURGEON BAY   CLOUDY    28  21  74 S10       30.03F
MANITOWOC      CLOUDY    29  25  85 S7        30.05F
SHEBOYGAN      CLOUDY    29  24  82 SW12      30.05F
$$

LMZ563-521-522-541>543-070300-
LAKESHORE

STATION/POSITION TIME  TEMP    WIND        PRES    VSBY  WAVE
                       AIR SEA DIR/SP/G                  HT/PER
                 (UTC) (F)     (DEG/KT/KT) (MB)    (MI)  (FT/S)
SHEBOYGAN LKSHOR 0200   31     200/ 10/ 12 1018.7F
KEWAUNEE LKSHORE 0100   29     200/  7/  9 1016.7F
ALGOMA MARINA    0111          220/ 12/ 15   N/A
CHAMBERS ISLAND  0100   28     170/  6/ 12 1016.6F
MENOMINEE LKSHOR 0100   29     190/  8     1015.2F
$$



USA.gov is the U.S. government's official web portal to all federal, state and local government web resources and services.